Tracking 20239 objects as of 23-Jan-2020
HD Live streaming from Space Station
objects crossing your sky now

YAOGAN-30 P

Track YAOGAN-30 P now!
10-day predictions


NORAD ID: 44450
Int'l Code: 2019-045B
Perigee: 599.0 km
Apogee: 612.9 km
Inclination: 35.0 °
Period: 96.7 minutes
Semi major axis: 6976 km
RCS: Unknown
Launch date: July 26, 2019
Source: People's Republic of China (PRC)
Launch site: Xichang Space Center, China (XSC)
aabbcc
Your satellite tracking list
Your tracking list is empty




NASA's NSSDC Master Catalog

Two Line Element Set (TLE):
1 44450U 19045B   20023.23138000  .00000113  00000-0  14397-4 0  9993
2 44450  34.9976 336.8613 0009964  50.5255 309.6332 14.89715810 27017
Source of the keplerian elements: AFSPC